Time,TemperatureF,DewpointF,PressureIn,WindDirection,WindDirectionDegrees,WindSpeedMPH,WindSpeedGustMPH,Humidity,HourlyPrecipIn,Conditions,Clouds,dailyrainin,SolarRadiationWatts/m^2,SoftwareType,DateUTC
2013-06-05 00:01:00,51.0,48.0,-100.00,SSE,155,2.0,4.0,91,0.01,,,0.01,0.000000,,2013-06-05 05:01:00,
2013-06-05 00:23:00,51.0,48.0,-100.00,SSE,155,2.0,4.0,91,0.01,,,0.01,0.000000,,2013-06-05 05:23:00,
2013-06-05 00:32:00,51.0,48.0,-100.00,SSE,155,2.0,4.0,91,0.01,,,0.01,0.000000,,2013-06-05 05:32:00,
2013-06-05 00:42:00,51.0,48.0,-100.00,SSE,155,2.0,4.0,91,0.01,,,0.01,0.000000,,2013-06-05 05:42:00,
2013-06-05 00:52:00,51.0,48.0,-100.00,SSE,155,2.0,4.0,91,0.01,,,0.01,0.000000,,2013-06-05 05:52:00,
2013-06-05 01:01:00,50.0,49.0,-100.00,South,184,3.0,8.0,95,0.01,,,0.02,0.000000,,2013-06-05 06:01:00,
2013-06-05 01:22:00,50.0,49.0,-100.00,South,184,3.0,8.0,95,0.01,,,0.02,0.000000,,2013-06-05 06:22:00,
2013-06-05 01:32:00,50.0,49.0,-100.00,South,184,3.0,8.0,95,0.01,,,0.02,0.000000,,2013-06-05 06:32:00,
2013-06-05 01:42:00,50.0,49.0,-100.00,South,184,3.0,8.0,95,0.01,,,0.02,0.000000,,2013-06-05 06:42:00,
2013-06-05 01:52:00,50.0,49.0,-100.00,South,184,3.0,8.0,95,0.01,,,0.02,0.000000,,2013-06-05 06:52:00,
2013-06-05 02:01:00,50.0,49.0,-100.00,South,171,3.0,6.0,96,0.02,,,0.04,0.000000,,2013-06-05 07:01:00,
2013-06-05 02:22:00,50.0,49.0,-100.00,South,171,3.0,6.0,96,0.02,,,0.04,0.000000,,2013-06-05 07:22:00,
2013-06-05 02:32:00,50.0,49.0,-100.00,South,171,3.0,6.0,96,0.02,,,0.04,0.000000,,2013-06-05 07:32:00,
2013-06-05 02:42:00,50.0,49.0,-100.00,South,171,3.0,6.0,96,0.02,,,0.04,0.000000,,2013-06-05 07:42:00,
2013-06-05 02:52:00,50.0,49.0,-100.00,South,171,3.0,6.0,96,0.02,,,0.04,0.000000,,2013-06-05 07:52:00,
2013-06-05 03:01:00,49.0,48.0,-100.00,SSW,192,2.0,7.0,97,0.01,,,0.05,0.000000,,2013-06-05 08:01:00,
2013-06-05 03:22:00,49.0,48.0,-100.00,SSW,192,2.0,7.0,97,0.01,,,0.05,0.000000,,2013-06-05 08:22:00,
2013-06-05 03:32:00,49.0,48.0,-100.00,SSW,192,2.0,7.0,97,0.01,,,0.05,0.000000,,2013-06-05 08:32:00,
2013-06-05 03:42:00,49.0,48.0,-100.00,SSW,192,2.0,7.0,97,0.01,,,0.05,0.000000,,2013-06-05 08:42:00,
2013-06-05 03:52:00,49.0,48.0,-100.00,SSW,192,2.0,7.0,97,0.01,,,0.05,0.000000,,2013-06-05 08:52:00,
2013-06-05 04:01:00,49.0,48.0,-100.00,East,88,2.0,4.0,98,0.03,,,0.08,0.000000,,2013-06-05 09:01:00,
2013-06-05 04:22:00,49.0,48.0,-100.00,East,88,2.0,4.0,98,0.03,,,0.08,0.000000,,2013-06-05 09:22:00,
2013-06-05 04:33:00,49.0,48.0,-100.00,East,88,2.0,4.0,98,0.03,,,0.08,0.000000,,2013-06-05 09:33:00,
2013-06-05 04:43:00,49.0,48.0,-100.00,East,88,2.0,4.0,98,0.03,,,0.08,0.000000,,2013-06-05 09:43:00,
2013-06-05 04:53:00,49.0,48.0,-100.00,East,88,2.0,4.0,98,0.03,,,0.08,0.000000,,2013-06-05 09:53:00,
2013-06-05 05:01:00,49.0,49.0,-100.00,ESE,104,3.0,5.0,99,0.15,,,0.23,0.000000,,2013-06-05 10:01:00,
2013-06-05 05:23:00,49.0,49.0,-100.00,ESE,104,3.0,5.0,99,0.15,,,0.23,0.000000,,2013-06-05 10:23:00,
2013-06-05 05:33:00,49.0,49.0,-100.00,ESE,104,3.0,5.0,99,0.15,,,0.23,0.000000,,2013-06-05 10:33:00,
2013-06-05 05:43:00,49.0,49.0,-100.00,ESE,104,3.0,5.0,99,0.15,,,0.23,0.000000,,2013-06-05 10:43:00,
2013-06-05 05:53:00,49.0,49.0,-100.00,ESE,104,3.0,5.0,99,0.15,,,0.23,0.000000,,2013-06-05 10:53:00,
2013-06-05 06:01:00,49.0,48.0,-100.00,SE,133,3.0,7.0,98,0.02,,,0.25,5.000000,,2013-06-05 11:01:00,
2013-06-05 06:22:00,49.0,48.0,-100.00,SE,133,3.0,7.0,98,0.02,,,0.25,5.000000,,2013-06-05 11:22:00,
2013-06-05 06:33:00,49.0,48.0,-100.00,SE,133,3.0,7.0,98,0.02,,,0.25,5.000000,,2013-06-05 11:33:00,
2013-06-05 06:42:00,49.0,48.0,-100.00,SE,133,3.0,7.0,98,0.02,,,0.25,5.000000,,2013-06-05 11:42:00,
2013-06-05 06:52:00,49.0,48.0,-100.00,SE,133,3.0,7.0,98,0.02,,,0.25,5.000000,,2013-06-05 11:52:00,
2013-06-05 07:01:00,49.0,48.0,-100.00,ESE,122,4.0,9.0,96,0.01,,,0.26,30.000000,,2013-06-05 12:01:00,
2013-06-05 07:22:00,49.0,48.0,-100.00,ESE,122,4.0,9.0,96,0.01,,,0.26,30.000000,,2013-06-05 12:22:00,
2013-06-05 07:32:00,49.0,48.0,-100.00,ESE,122,4.0,9.0,96,0.01,,,0.26,30.000000,,2013-06-05 12:32:00,
2013-06-05 07:44:00,49.0,48.0,-100.00,ESE,122,4.0,9.0,96,0.01,,,0.26,30.000000,,2013-06-05 12:44:00,
2013-06-05 07:52:00,49.0,48.0,-100.00,ESE,122,4.0,9.0,96,0.01,,,0.26,30.000000,,2013-06-05 12:52:00,
2013-06-05 08:01:00,48.0,46.0,-100.00,ESE,110,6.0,11.0,92,0.00,,,0.26,66.000000,,2013-06-05 13:01:00,
2013-06-05 08:22:00,48.0,46.0,-100.00,ESE,110,6.0,11.0,92,0.00,,,0.26,66.000000,,2013-06-05 13:22:00,
2013-06-05 08:33:00,48.0,46.0,-100.00,ESE,110,6.0,11.0,92,0.00,,,0.26,66.000000,,2013-06-05 13:33:00,
2013-06-05 08:42:00,48.0,46.0,-100.00,ESE,110,6.0,11.0,92,0.00,,,0.26,66.000000,,2013-06-05 13:42:00,
2013-06-05 08:52:00,48.0,46.0,-100.00,ESE,110,6.0,11.0,92,0.00,,,0.26,66.000000,,2013-06-05 13:52:00,
2013-06-05 09:01:00,47.0,43.0,-100.00,SE,144,3.0,11.0,87,0.00,,,0.26,90.000000,,2013-06-05 14:01:00,
2013-06-05 09:22:00,47.0,43.0,-100.00,SE,144,3.0,11.0,87,0.00,,,0.26,90.000000,,2013-06-05 14:22:00,
2013-06-05 09:32:00,47.0,43.0,-100.00,SE,144,3.0,11.0,87,0.00,,,0.26,90.000000,,2013-06-05 14:32:00,
2013-06-05 09:42:00,47.0,43.0,-100.00,SE,144,3.0,11.0,87,0.00,,,0.26,90.000000,,2013-06-05 14:42:00,
2013-06-05 09:52:00,47.0,43.0,-100.00,SE,144,3.0,11.0,87,0.00,,,0.26,90.000000,,2013-06-05 14:52:00,
2013-06-05 10:01:00,48.0,43.0,-100.00,SE,133,6.0,11.0,83,0.00,,,-99.99,180.000000,,2013-06-05 15:01:00,
2013-06-05 10:23:00,48.0,43.0,-100.00,SE,133,6.0,11.0,83,0.00,,,-99.99,180.000000,,2013-06-05 15:23:00,
2013-06-05 10:33:00,48.0,43.0,-100.00,SE,133,6.0,11.0,83,0.00,,,-99.99,180.000000,,2013-06-05 15:33:00,
2013-06-05 10:43:00,48.0,43.0,-100.00,SE,133,6.0,11.0,83,0.00,,,-99.99,180.000000,,2013-06-05 15:43:00,
2013-06-05 10:53:00,48.0,43.0,-100.00,SE,133,6.0,11.0,83,0.00,,,-99.99,180.000000,,2013-06-05 15:53:00,
2013-06-05 11:01:00,47.0,44.0,-100.00,SE,125,5.0,13.0,88,0.00,,,0.26,199.000000,,2013-06-05 16:01:00,
2013-06-05 11:23:00,47.0,44.0,-100.00,SE,125,5.0,13.0,88,0.00,,,0.26,199.000000,,2013-06-05 16:23:00,
2013-06-05 11:32:00,47.0,44.0,-100.00,SE,125,5.0,13.0,88,0.00,,,0.26,199.000000,,2013-06-05 16:32:00,
2013-06-05 11:42:00,47.0,44.0,-100.00,SE,125,5.0,13.0,88,0.00,,,0.26,199.000000,,2013-06-05 16:42:00,
2013-06-05 11:54:00,47.0,44.0,-100.00,SE,125,5.0,13.0,88,0.00,,,0.26,199.000000,,2013-06-05 16:54:00,
2013-06-05 12:01:00,48.0,46.0,-100.00,ESE,112,8.0,13.0,93,0.02,,,0.28,197.000000,,2013-06-05 17:01:00,
2013-06-05 12:22:00,48.0,46.0,-100.00,ESE,112,8.0,13.0,93,0.02,,,0.28,197.000000,,2013-06-05 17:22:00,
2013-06-05 12:33:00,48.0,46.0,-100.00,ESE,112,8.0,13.0,93,0.02,,,0.28,197.000000,,2013-06-05 17:33:00,
2013-06-05 12:43:00,48.0,46.0,-100.00,ESE,112,8.0,13.0,93,0.02,,,0.28,197.000000,,2013-06-05 17:43:00,
2013-06-05 12:52:00,48.0,46.0,-100.00,ESE,112,8.0,13.0,93,0.02,,,0.28,197.000000,,2013-06-05 17:52:00,
2013-06-05 13:01:00,50.0,47.0,-100.00,ESE,112,7.0,17.0,91,0.01,,,0.29,329.000000,,2013-06-05 18:01:00,
2013-06-05 13:23:00,50.0,47.0,-100.00,ESE,112,7.0,17.0,91,0.01,,,0.29,329.000000,,2013-06-05 18:23:00,
2013-06-05 13:32:00,50.0,47.0,-100.00,ESE,112,7.0,17.0,91,0.01,,,0.29,329.000000,,2013-06-05 18:32:00,
2013-06-05 13:42:00,50.0,47.0,-100.00,ESE,112,7.0,17.0,91,0.01,,,0.29,329.000000,,2013-06-05 18:42:00,
2013-06-05 13:52:00,50.0,47.0,-100.00,ESE,112,7.0,17.0,91,0.01,,,0.29,329.000000,,2013-06-05 18:52:00,
2013-06-05 14:01:00,51.0,48.0,-100.00,East,99,4.0,11.0,91,0.00,,,0.29,220.000000,,2013-06-05 19:01:00,
2013-06-05 14:23:00,51.0,48.0,-100.00,East,99,4.0,11.0,91,0.00,,,0.29,220.000000,,2013-06-05 19:23:00,
2013-06-05 14:32:00,51.0,48.0,-100.00,East,99,4.0,11.0,91,0.00,,,0.29,220.000000,,2013-06-05 19:32:00,
2013-06-05 14:42:00,51.0,48.0,-100.00,East,99,4.0,11.0,91,0.00,,,0.29,220.000000,,2013-06-05 19:42:00,
2013-06-05 14:53:00,51.0,48.0,-100.00,East,99,4.0,11.0,91,0.00,,,0.29,220.000000,,2013-06-05 19:53:00,
2013-06-05 15:01:00,51.0,48.0,-100.00,ESE,104,5.0,9.0,91,0.00,,,0.29,100.000000,,2013-06-05 20:01:00,
2013-06-05 15:23:00,51.0,48.0,-100.00,ESE,104,5.0,9.0,91,0.00,,,0.29,100.000000,,2013-06-05 20:23:00,
2013-06-05 15:32:00,51.0,48.0,-100.00,ESE,104,5.0,9.0,91,0.00,,,0.29,100.000000,,2013-06-05 20:32:00,
2013-06-05 15:42:00,51.0,48.0,-100.00,ESE,104,5.0,9.0,91,0.00,,,0.29,100.000000,,2013-06-05 20:42:00,
2013-06-05 15:52:00,51.0,48.0,-100.00,ESE,104,5.0,9.0,91,0.00,,,0.29,100.000000,,2013-06-05 20:52:00,
2013-06-05 16:01:00,50.0,49.0,-100.00,East,86,4.0,9.0,95,0.01,,,0.30,55.000000,,2013-06-05 21:01:00,
2013-06-05 16:23:00,50.0,49.0,-100.00,East,86,4.0,9.0,95,0.01,,,0.30,55.000000,,2013-06-05 21:23:00,
2013-06-05 16:33:00,50.0,49.0,-100.00,East,86,4.0,9.0,95,0.01,,,0.30,55.000000,,2013-06-05 21:33:00,
2013-06-05 16:43:00,50.0,49.0,-100.00,East,86,4.0,9.0,95,0.01,,,0.30,55.000000,,2013-06-05 21:43:00,
2013-06-05 16:53:00,50.0,49.0,-100.00,East,86,4.0,9.0,95,0.01,,,0.30,55.000000,,2013-06-05 21:53:00,
2013-06-05 17:01:00,49.0,48.0,-100.00,East,91,4.0,8.0,97,0.12,,,0.42,24.000000,,2013-06-05 22:01:00,
2013-06-05 17:22:00,49.0,48.0,-100.00,East,91,4.0,8.0,97,0.12,,,0.42,24.000000,,2013-06-05 22:22:00,
2013-06-05 17:33:00,49.0,48.0,-100.00,East,91,4.0,8.0,97,0.12,,,0.42,24.000000,,2013-06-05 22:33:00,
2013-06-05 17:43:00,49.0,48.0,-100.00,East,91,4.0,8.0,97,0.12,,,0.42,24.000000,,2013-06-05 22:43:00,
2013-06-05 17:53:00,49.0,48.0,-100.00,East,91,4.0,8.0,97,0.12,,,0.42,24.000000,,2013-06-05 22:53:00,
2013-06-05 18:01:00,49.0,48.0,-100.00,East,84,4.0,8.0,97,0.15,,,0.57,18.000000,,2013-06-05 23:01:00,
2013-06-05 18:22:00,49.0,48.0,-100.00,East,84,4.0,8.0,97,0.15,,,0.57,18.000000,,2013-06-05 23:22:00,
2013-06-05 18:32:00,49.0,48.0,-100.00,East,84,4.0,8.0,97,0.15,,,0.57,18.000000,,2013-06-05 23:32:00,
2013-06-05 18:42:00,49.0,48.0,-100.00,East,84,4.0,8.0,97,0.15,,,0.57,18.000000,,2013-06-05 23:42:00,
2013-06-05 18:53:00,49.0,48.0,-100.00,East,84,4.0,8.0,97,0.15,,,0.57,18.000000,,2013-06-05 23:53:00,
2013-06-05 19:01:00,49.0,48.0,-100.00,East,79,4.0,6.0,98,0.08,,,0.65,10.000000,,2013-06-06 00:01:00,
2013-06-05 19:22:00,49.0,48.0,-100.00,East,79,4.0,6.0,98,0.08,,,0.65,10.000000,,2013-06-06 00:22:00,
2013-06-05 19:32:00,49.0,48.0,-100.00,East,79,4.0,6.0,98,0.08,,,0.65,10.000000,,2013-06-06 00:32:00,
2013-06-05 19:43:00,49.0,48.0,-100.00,East,79,4.0,6.0,98,0.08,,,0.65,10.000000,,2013-06-06 00:43:00,
2013-06-05 19:52:00,49.0,48.0,-100.00,East,79,4.0,6.0,98,0.08,,,0.65,10.000000,,2013-06-06 00:52:00,
2013-06-05 20:01:00,49.0,48.0,-100.00,East,82,4.0,8.0,98,0.12,,,0.77,8.000000,,2013-06-06 01:01:00,
2013-06-05 20:22:00,49.0,48.0,-100.00,East,82,4.0,8.0,98,0.12,,,0.77,8.000000,,2013-06-06 01:22:00,
2013-06-05 20:32:00,49.0,48.0,-100.00,East,82,4.0,8.0,98,0.12,,,0.77,8.000000,,2013-06-06 01:32:00,
2013-06-05 20:42:00,49.0,48.0,-100.00,East,82,4.0,8.0,98,0.12,,,0.77,8.000000,,2013-06-06 01:42:00,
2013-06-05 20:53:00,49.0,48.0,-100.00,East,82,4.0,8.0,98,0.12,,,0.77,8.000000,,2013-06-06 01:53:00,
2013-06-05 21:01:00,49.0,49.0,-100.00,East,85,4.0,8.0,99,0.08,,,0.85,2.000000,,2013-06-06 02:01:00,
2013-06-05 21:22:00,49.0,49.0,-100.00,East,85,4.0,8.0,99,0.08,,,0.85,2.000000,,2013-06-06 02:22:00,
2013-06-05 21:32:00,49.0,49.0,-100.00,East,85,4.0,8.0,99,0.08,,,0.85,2.000000,,2013-06-06 02:32:00,
2013-06-05 21:42:00,49.0,49.0,-100.00,East,85,4.0,8.0,99,0.08,,,0.85,2.000000,,2013-06-06 02:42:00,
2013-06-05 21:52:00,49.0,49.0,-100.00,East,85,4.0,8.0,99,0.08,,,0.85,2.000000,,2013-06-06 02:52:00,
2013-06-05 22:01:00,49.0,48.0,-100.00,ESE,117,4.0,8.0,98,0.07,,,0.92,0.000000,,2013-06-06 03:01:00,
2013-06-05 22:22:00,49.0,48.0,-100.00,ESE,117,4.0,8.0,98,0.07,,,0.92,0.000000,,2013-06-06 03:22:00,
2013-06-05 22:33:00,49.0,48.0,-100.00,ESE,117,4.0,8.0,98,0.07,,,0.92,0.000000,,2013-06-06 03:33:00,
2013-06-05 22:43:00,49.0,48.0,-100.00,ESE,117,4.0,8.0,98,0.07,,,0.92,0.000000,,2013-06-06 03:43:00,
2013-06-05 22:53:00,49.0,48.0,-100.00,ESE,117,4.0,8.0,98,0.07,,,0.92,0.000000,,2013-06-06 03:53:00,
2013-06-05 23:01:00,49.0,48.0,-100.00,ESE,103,4.0,9.0,97,0.02,,,0.94,0.000000,,2013-06-06 04:01:00,
2013-06-05 23:23:00,49.0,48.0,-100.00,ESE,103,4.0,9.0,97,0.02,,,0.94,0.000000,,2013-06-06 04:23:00,
2013-06-05 23:33:00,49.0,48.0,-100.00,ESE,103,4.0,9.0,97,0.02,,,0.94,0.000000,,2013-06-06 04:33:00,
2013-06-05 23:42:00,49.0,48.0,-100.00,ESE,103,4.0,9.0,97,0.02,,,0.94,0.000000,,2013-06-06 04:42:00,
2013-06-05 23:53:00,49.0,48.0,-100.00,ESE,103,4.0,9.0,97,0.02,,,0.94,0.000000,,2013-06-06 04:53:00,